Location: Abundant Grace Fellowship
(35.0349°N, 90.0924°W)
Time: 23:10:47
(UTC+00:00)

CZ-4 R/B - Pass Details

Date: 18 January 2026
Orbit: 547 x 553 km, 97.6° (Epoch: 13 February)

Event Time Altitude Azimuth Distance (km) Brightness Sun altitude
Rises 00:10:31 0° 164° (SSE) 2,708 7.9 -11.6°
Reaches altitude 10° 00:12:38 10° 164° (SSE) 1,820 7.0 -12.0°
Maximum altitude 00:16:34 80° 78° (ENE) 565 4.2 -12.8°
Drops below altitude 10° 00:20:32 10° 351° (N) 1,837 6.9 -13.6°
Sets 00:22:41 0° 350° (N) 2,736 7.8 -14.0°
